Flag for Venezuela Weather past 2 weeks in Barquisimeto, Venezuela

Now
84 °F

Scattered clouds.


Feels Like: 86 °F
Forecast: 67 / 90 °F
Wind: 10 mph from Southwest

Location: Barquisimeto Airport

Current Time: Dec 20, 2014 at 12:26:54 PM

Latest Report: Dec 20, 2014 at 11:30 AM


Visibility: N/A

Pressure: 30.07 "Hg

Humidity: 51%

Dew point: 64 °F

Location of BarquisimetoLocation

Historic Weather in Barquisimeto — Graph

°F

Barquisimeto temperature yesterday

Maximum temperature yesterday: 86 °F (at 12:30 PM)
Minimum temperature yesterday: 70 °F (at 5:30 AM)
Average temperature yesterday: 78 °F

Past Weeks' High & Low Weather Summary

 TemperatureHumidityPressure
High90 °F (Dec 5, 2:30 PM)94% (Dec 5, 1:30 PM)30.09 "Hg (Dec 5, 1:30 PM)
Low68 °F (Dec 5, 1:30 PM)16% (Dec 9, 12:30 PM)29.68 "Hg (Dec 15, 7:30 AM)
Average78 °F70%29.99 "Hg
* Reported Dec 5 11:30 AM — Dec 20 11:30 AM, Barquisimeto, Weather by CustomWeather, © 2014

Note: Actual official high and low records may vary slightly from our data, if they occured in-between our weather recording intervals... More about our weather records

Advertising

Barquisimeto weather history for previous 24 hours

 ConditionsComfort  
Time TempWeatherWind HumidityBarometerVisibility
11:30 AM
Dec 20
84 °FScattered clouds.10 mph51%30.04 "HgN/A
10:30 AM82 °FScattered clouds.9 mph55%30.07 "HgN/A
9:30 AM81 °FScattered clouds.3 mph58%30.07 "HgN/A
8:30 AM77 °FScattered clouds.1 mph65%30.07 "HgN/A
7:30 AM70 °FScattered clouds.3 mph88%30.04 "HgN/A
6:30 AM68 °FScattered clouds.No wind94%30.04 "HgN/A
5:30 AM68 °FPassing clouds.No wind94%30.01 "HgN/A
4:30 AM68 °FPassing clouds.1 mph94%30.01 "HgN/A
1:30 AM72 °FPassing clouds.7 mph83%30.04 "HgN/A
10:30 PM
Dec 19
72 °FPassing clouds.5 mph83%30.04 "HgN/A
9:30 PM73 °FPassing clouds.5 mph83%30.04 "HgN/A
8:30 PM75 °FPassing clouds.13 mph74%30.01 "HgN/A
7:30 PM77 °FPassing clouds.7 mph69%29.98 "HgN/A
6:30 PM79 °FPassing clouds.9 mph65%29.98 "HgN/A
5:30 PM81 °FPassing clouds.12 mph62%29.98 "HgN/A
4:30 PM84 °FPartly sunny.9 mph51%29.95 "HgN/A
3:30 PM84 °FPartly sunny.13 mph51%29.98 "HgN/A
2:30 PM86 °FScattered clouds.9 mph49%29.98 "HgN/A
1:30 PM86 °FPartly sunny.7 mph49%30.01 "HgN/A
12:30 PM86 °FScattered clouds.9 mph49%30.01 "HgN/A
Weather by CustomWeather, © 2014

See weather overviewHow to use our weather pages